sat.trackr.live / text

‹ back to catalog

STARLINK-35729

NORAD 66837 · 2025-280S

PAYLOAD ACTIVE UNKNOWN

§ Identity

Operator
Country
US
Launch date
2025-12-02
Launch site
AFWTR
Launch vehicle
Mass (kg)
RCS (m²)

Purposes: comms

External: N2YO · Heavens-Above · Gunter

§ Orbital elements

Epoch: 2026-09-20T05:52:31.546848Z

Period
96.11 min
Inclination
70.0005°
Eccentricity
0.0002999
Mean motion
14.98338568 rev/d
Perigee alt
569.9 km
Apogee alt
574.1 km
Semi-major
6,950.2 km
B*
2.9062e-4
RAAN
204.1017°
Arg perigee
268.0535°
Mean anomaly
92.0281°
Rev number
4,521

§ Raw data

STARLINK-357291 66837U 25280S   26263.24480957  .00003377  00000+0  29062-3 0  99962 66837  70.0005 204.1017 0002999 268.0535  92.0281 14.98338568 45216

JSON: /api/v1/satellites/66837 · /tle

For live sub-satellite position, see the globe view (requires WebGL).

§ Visibility from observer

Set your observer location to see the next 7 days of passes ≥ 10°. The values pass through the URL so the page stays shareable.

No JS? Fill the form by hand. The geolocation button needs JavaScript.